Weather History for Tillamook, OR

Change the Weather History Date:

Monday, October 14, 2013

  Actual Average (KMMV) Record (KMMV)
Temperature  
Mean Temperature 48 °F 52 °F  
Max Temperature 64 °F 63 °F 84 °F (1961)
Min Temperature 33 °F 41 °F 25 °F (1899)
Degree Days  
Heating Degree Days 16 13  
Month to date heating degree days 147  
Since 1 July heating degree days 363  
Cooling Degree Days 0 0  
Month to date cooling degree days 0  
Year to date cooling degree days 214  
Moisture  
Dew Point 42 °F    
Average Humidity 85    
Maximum Humidity 100    
Minimum Humidity 45    
Precipitation  
Precipitation 0.00 in 0.10 in 1.48 in (1908)
Month to date precipitation 1.10  
Year to date precipitation 24.81  
Sea Level Pressure  
Sea Level Pressure 30.33 in    
Wind  
Wind Speed 0 mph (NW)    
Max Wind Speed 9 mph    
Max Gust Speed -    
Visibility 7 miles    
Events Fog    
T = Trace of Precipitation, MM = Missing Value Source: NWS Daily Summary

Daily Weather History Graph

Daily Weather History Graph

Search for Another Location

Airport:

Trip Planner

Search our weather history database for the weather conditions in past years. The results will help you decide how hot, cold, wet, or windy it might be!

Date:

Astronomy

Oct. 14, 2013 Rise Set
Actual Time 8:30 AM MDT 7:30 PM MDT
Civil Twilight 8:00 AM MDT 8:00 PM MDT
Nautical Twilight 7:26 AM MDT 8:34 PM MDT
Astronomical Twilight 6:52 AM MDT 9:09 PM MDT
Moon 5:14 PM MDT (10/14) 3:41 AM MDT (10/14)
Length of Visible Light 11h 59m
Length of Day
11h 00m
Waxing Gibbous, 80% of the Moon is Illuminated
Oct 14
Waxing Gibbous
Oct 18
Full
Oct 26
Last Quarter
Nov 3
New
Nov 9
First Quarter

Hourly Weather History & Observations

Time (MDT) Temp. Dew Point Humidity Pressure Visibility Wind Dir Wind Speed Gust Speed Precip Events Conditions
12:15 AM 42.8 °F 42.8 °F 100% 30.33 in 0.2 mi Calm Calm - N/A Fog Fog
12:35 AM 42.8 °F 42.8 °F 100% 30.33 in 0.2 mi Calm Calm - N/A Fog Fog
12:55 AM 42.8 °F 41.0 °F 93% 30.33 in 1.2 mi Calm Calm - N/A   Mostly Cloudy
1:15 AM 39.2 °F 39.2 °F 100% 30.33 in 0.8 mi Calm Calm - N/A   Mist
1:35 AM 37.4 °F 37.4 °F 100% 30.34 in 0.8 mi Calm Calm - N/A   Mist
1:55 AM 39.2 °F 39.2 °F 100% 30.33 in 0.5 mi Calm Calm - N/A Fog Fog
2:15 AM 39.2 °F 39.2 °F 100% 30.33 in 0.8 mi Calm Calm - N/A   Overcast
2:35 AM 41.0 °F 41.0 °F 100% 30.33 in 1.2 mi Calm Calm - N/A   Overcast
2:55 AM 39.2 °F 39.2 °F 100% 30.34 in 1.0 mi Calm Calm - N/A   Overcast
3:15 AM 39.2 °F 39.2 °F 100% 30.34 in 0.5 mi Calm Calm - N/A Fog Fog
3:35 AM 37.4 °F 37.4 °F 100% 30.34 in 1.5 mi Calm Calm - N/A   Overcast
3:55 AM 37.4 °F 37.4 °F 100% 30.34 in 7.0 mi Calm Calm - N/A   Overcast
4:15 AM 37.4 °F 37.4 °F 100% 30.34 in 0.5 mi Calm Calm - N/A Fog Fog
4:35 AM 35.6 °F 35.6 °F 100% 30.34 in 3.0 mi Calm Calm - N/A   Mostly Cloudy
4:55 AM 35.6 °F 35.6 °F 100% 30.34 in 10.0 mi Calm Calm - N/A   Overcast
5:15 AM 37.4 °F 37.4 °F 100% 30.34 in 10.0 mi Calm Calm - N/A   Mostly Cloudy
5:35 AM 35.6 °F 35.6 °F 100% 30.34 in 0.8 mi Calm Calm - N/A   Overcast
5:55 AM 35.6 °F 35.6 °F 100% 30.33 in 2.0 mi Calm Calm - N/A   Overcast
6:15 AM 35.6 °F 35.6 °F 100% 30.34 in 7.0 mi Calm Calm - N/A   Overcast
6:35 AM 35.6 °F 35.6 °F 100% 30.34 in 5.0 mi Calm Calm - N/A   Mostly Cloudy
6:55 AM 35.6 °F 35.6 °F 100% 30.34 in 0.2 mi Calm Calm - N/A Fog Fog
7:15 AM 33.8 °F 33.8 °F 100% 30.35 in 0.2 mi Calm Calm - N/A Fog Fog
7:35 AM 33.8 °F 33.8 °F 100% 30.35 in 0.5 mi Calm Calm - N/A Fog Fog
7:55 AM 33.8 °F 33.8 °F 100% 30.35 in 0.2 mi Calm Calm - N/A Fog Fog
8:15 AM 33.8 °F 33.8 °F 100% 30.35 in 0.8 mi Calm Calm - N/A   Mostly Cloudy
8:35 AM 33.8 °F 33.8 °F 100% 30.35 in 0.8 mi Calm Calm - N/A   Mostly Cloudy
8:55 AM 35.6 °F 35.6 °F 100% 30.36 in 5.0 mi Calm Calm - N/A   Clear
9:15 AM 33.8 °F 33.8 °F 100% 30.36 in 7.0 mi Calm Calm - N/A   Clear
9:35 AM 35.6 °F 35.6 °F 100% 30.36 in 10.0 mi Calm Calm - N/A   Clear
9:55 AM 37.4 °F 37.4 °F 100% 30.37 in 10.0 mi Calm Calm - N/A   Clear
10:15 AM 39.2 °F 39.2 °F 100% 30.36 in 10.0 mi Calm Calm - N/A   Clear
10:35 AM 41.0 °F 41.0 °F 100% 30.37 in 10.0 mi Calm Calm - N/A   Clear
10:55 AM 42.8 °F 42.8 °F 100% 30.37 in 10.0 mi Calm Calm - N/A   Clear
11:15 AM 46.4 °F 42.8 °F 87% 30.36 in 10.0 mi Calm Calm - N/A   Clear
11:35 AM 48.2 °F 44.6 °F 87% 30.36 in 10.0 mi Calm Calm - N/A   Clear
11:55 AM 50.0 °F 44.6 °F 82% 30.36 in 10.0 mi Calm Calm - N/A   Clear
12:15 PM 53.6 °F 44.6 °F 72% 30.36 in 10.0 mi Calm Calm - N/A   Clear
12:35 PM 55.4 °F 44.6 °F 67% 30.35 in 10.0 mi Calm Calm - N/A   Clear
12:55 PM 57.2 °F 44.6 °F 63% 30.35 in 10.0 mi Calm Calm - N/A   Clear
1:15 PM 59.0 °F 46.4 °F 63% 30.35 in 10.0 mi Calm Calm - N/A   Clear
1:35 PM 59.0 °F 46.4 °F 63% 30.35 in 10.0 mi Calm Calm - N/A   Clear
1:55 PM 60.8 °F 46.4 °F 59% 30.35 in 10.0 mi Calm Calm - N/A   Clear
2:15 PM 60.8 °F 46.4 °F 59% 30.34 in 10.0 mi Calm Calm - N/A   Clear
2:35 PM 62.6 °F 42.8 °F 48% 30.33 in 10.0 mi Calm Calm - N/A   Clear
2:55 PM 62.6 °F 41.0 °F 45% 30.33 in 10.0 mi Calm Calm - N/A   Clear
3:15 PM 64.4 °F 42.8 °F 45% 30.32 in 10.0 mi Calm Calm - N/A   Clear
3:35 PM 64.4 °F 44.6 °F 49% 30.32 in 10.0 mi NNW 5.8 mph - N/A   Clear
3:55 PM 62.6 °F 46.4 °F 55% 30.31 in 10.0 mi Calm Calm - N/A   Clear
4:15 PM 64.4 °F 48.2 °F 56% 30.31 in 10.0 mi Calm Calm - N/A   Clear
4:35 PM 62.6 °F 48.2 °F 59% 30.31 in 10.0 mi Calm Calm - N/A   Clear
4:55 PM 62.6 °F 48.2 °F 59% 30.31 in 10.0 mi Calm Calm - N/A   Clear
5:15 PM 62.6 °F 46.4 °F 55% 30.30 in 10.0 mi Calm Calm - N/A   Clear
5:35 PM 62.6 °F 46.4 °F 55% 30.30 in 10.0 mi Calm Calm - N/A   Clear
5:55 PM 62.6 °F 46.4 °F 55% 30.30 in 10.0 mi NW 9.2 mph - N/A   Clear
6:15 PM 62.6 °F 46.4 °F 55% 30.30 in 10.0 mi Calm Calm - N/A   Clear
6:35 PM 62.6 °F 46.4 °F 55% 30.30 in 10.0 mi Calm Calm - N/A   Clear
6:55 PM 60.8 °F 50.0 °F 68% 30.30 in 10.0 mi Calm Calm - N/A   Clear
7:15 PM 59.0 °F 50.0 °F 72% 30.31 in 10.0 mi Calm Calm - N/A   Clear
7:35 PM 59.0 °F 50.0 °F 72% 30.30 in 10.0 mi Calm Calm - N/A   Clear
7:55 PM 53.6 °F 50.0 °F 88% 30.31 in 10.0 mi Calm Calm - N/A   Clear
8:15 PM 53.6 °F 50.0 °F 88% 30.31 in 10.0 mi Calm Calm - N/A   Clear
8:35 PM 51.8 °F 50.0 °F 94% 30.31 in 10.0 mi Calm Calm - N/A   Clear
8:55 PM 50.0 °F 46.4 °F 87% 30.32 in 10.0 mi Calm Calm - N/A   Clear
9:15 PM 50.0 °F 46.4 °F 87% 30.31 in 10.0 mi Calm Calm - N/A   Clear
9:35 PM 46.4 °F 44.6 °F 93% 30.32 in 10.0 mi Calm Calm - N/A   Clear
9:55 PM 46.4 °F 44.6 °F 93% 30.32 in 7.0 mi Calm Calm - N/A   Clear
10:15 PM 44.6 °F 42.8 °F 93% 30.32 in 10.0 mi Calm Calm - N/A   Clear
10:35 PM 44.6 °F 44.6 °F 100% 30.32 in 10.0 mi Calm Calm - N/A   Clear
10:55 PM 44.6 °F 42.8 °F 93% 30.33 in 7.0 mi Calm Calm - N/A   Clear
11:15 PM 42.8 °F 42.8 °F 100% 30.33 in 7.0 mi Calm Calm - N/A   Clear
11:35 PM 42.8 °F 42.8 °F 100% 30.33 in 10.0 mi Calm Calm - N/A   Clear
11:55 PM 42.8 °F 42.8 °F 100% 30.33 in 10.0 mi Calm Calm - N/A   Clear